Time,TemperatureF,DewpointF,PressureIn,WindDirection,WindDirectionDegrees,WindSpeedMPH,WindSpeedGustMPH,Humidity,HourlyPrecipIn,Conditions,Clouds,dailyrainin,SoftwareType,DateUTC
2013-04-13 00:01:00,33.9,30.5,29.90,West,259,4.0,10.0,87,0.00,,OVC008,0.00,VWS V14.01,2013-04-13 05:01:00,
2013-04-13 00:06:00,33.9,30.7,29.90,WSW,250,9.0,9.0,88,0.00,,OVC008,0.00,VWS V14.01,2013-04-13 05:06:00,
2013-04-13 00:11:00,33.9,30.7,29.90,West,261,5.0,10.0,88,0.00,,OVC008,0.00,VWS V14.01,2013-04-13 05:11:00,
2013-04-13 00:16:00,33.9,30.7,29.90,WNW,286,6.0,10.0,88,0.00,,OVC008,0.00,VWS V14.01,2013-04-13 05:16:00,
2013-04-13 00:21:00,33.9,30.7,29.90,West,279,6.0,10.0,88,0.00,,OVC008,0.00,VWS V14.01,2013-04-13 05:21:00,
2013-04-13 00:26:00,33.8,30.6,29.90,West,281,7.0,10.0,88,0.00,,OVC008,0.00,VWS V14.01,2013-04-13 05:26:00,
2013-04-13 00:31:00,33.8,30.6,29.90,West,265,7.0,10.0,88,0.00,,OVC008,0.00,VWS V14.01,2013-04-13 05:31:00,
2013-04-13 00:36:00,33.8,30.6,29.90,West,259,6.0,10.0,88,0.00,,OVC008,0.00,VWS V14.01,2013-04-13 05:36:00,
2013-04-13 00:41:00,33.8,30.6,29.90,West,271,8.0,11.0,88,0.00,,OVC008,0.00,VWS V14.01,2013-04-13 05:41:00,
2013-04-13 00:47:00,33.7,30.2,29.90,West,267,5.0,11.0,87,0.00,,OVC008,0.00,VWS V14.01,2013-04-13 05:47:00,
2013-04-13 00:52:00,33.7,30.2,29.90,West,271,7.0,11.0,87,0.00,,OVC008,0.00,VWS V14.01,2013-04-13 05:52:00,
2013-04-13 00:57:00,33.7,30.2,29.90,West,264,5.0,11.0,87,0.00,,OVC008,0.00,VWS V14.01,2013-04-13 05:57:00,
2013-04-13 01:02:00,33.7,30.2,29.91,West,270,6.0,11.0,87,0.00,,OVC008,0.00,VWS V14.01,2013-04-13 06:02:00,
2013-04-13 01:07:00,33.7,30.2,29.90,WNW,285,8.0,11.0,87,0.00,,OVC008,0.00,VWS V14.01,2013-04-13 06:07:00,
2013-04-13 01:12:00,33.7,30.2,29.90,WNW,282,7.0,12.0,87,0.00,,OVC008,0.00,VWS V14.01,2013-04-13 06:12:00,
2013-04-13 01:17:00,33.7,30.2,29.91,WNW,284,7.0,12.0,87,0.00,,OVC008,0.00,VWS V14.01,2013-04-13 06:17:00,
2013-04-13 01:22:00,33.7,30.2,29.91,West,269,7.0,12.0,87,0.00,,OVC008,0.00,VWS V14.01,2013-04-13 06:22:00,
2013-04-13 01:27:00,33.6,30.1,29.91,WNW,282,4.0,12.0,87,0.00,,OVC008,0.00,VWS V14.01,2013-04-13 06:27:00,
2013-04-13 01:33:00,33.6,30.1,29.91,West,277,4.0,12.0,87,0.00,,OVC008,0.00,VWS V14.01,2013-04-13 06:33:00,
2013-04-13 01:38:00,33.5,30.3,29.91,West,279,3.0,12.0,88,0.00,,OVC008,0.00,VWS V14.01,2013-04-13 06:38:00,
2013-04-13 01:43:00,33.5,30.3,29.90,West,263,6.0,12.0,88,0.00,,OVC008,0.00,VWS V14.01,2013-04-13 06:43:00,
2013-04-13 01:48:00,33.5,30.6,29.90,West,266,7.0,12.0,89,0.00,,OVC008,0.00,VWS V14.01,2013-04-13 06:48:00,
2013-04-13 01:53:00,33.4,30.5,29.90,WNW,300,4.0,12.0,89,0.00,,OVC008,0.00,VWS V14.01,2013-04-13 06:53:00,
2013-04-13 01:58:00,33.4,30.5,29.90,West,271,5.0,12.0,89,0.00,,OVC008,0.00,VWS V14.01,2013-04-13 06:58:00,
2013-04-13 02:03:00,33.4,30.2,29.90,West,281,5.0,12.0,88,0.00,,OVC008,0.00,VWS V14.01,2013-04-13 07:03:00,
2013-04-13 02:08:00,33.4,30.2,29.90,West,267,7.0,8.0,88,0.00,,OVC008,0.00,VWS V14.01,2013-04-13 07:08:00,
2013-04-13 02:13:00,33.3,30.1,29.90,West,271,7.0,9.0,88,0.00,,OVC008,0.00,VWS V14.01,2013-04-13 07:13:00,
2013-04-13 02:18:00,33.3,30.1,29.90,WNW,284,9.0,9.0,88,0.00,,OVC008,0.00,VWS V14.01,2013-04-13 07:18:00,
2013-04-13 02:23:00,33.3,30.1,29.90,WSW,257,6.0,9.0,88,0.00,,OVC008,0.00,VWS V14.01,2013-04-13 07:23:00,
2013-04-13 02:28:00,33.3,30.4,29.90,West,265,8.0,10.0,89,0.00,,OVC008,0.00,VWS V14.01,2013-04-13 07:28:00,
2013-04-13 02:33:00,33.2,30.6,29.90,WNW,296,8.0,10.0,90,0.00,,OVC008,0.00,VWS V14.01,2013-04-13 07:33:00,
2013-04-13 02:38:00,33.0,30.4,29.90,WNW,298,8.0,11.0,90,0.00,,OVC008,0.00,VWS V14.01,2013-04-13 07:38:00,
2013-04-13 02:43:00,32.8,30.2,29.90,West,277,7.0,12.0,90,0.00,,OVC008,0.00,VWS V14.01,2013-04-13 07:43:00,
2013-04-13 02:49:00,32.6,29.7,29.90,WNW,300,5.0,12.0,89,0.00,,OVC008,0.00,VWS V14.01,2013-04-13 07:49:00,
2013-04-13 02:54:00,32.5,29.4,29.90,WNW,296,8.0,12.0,88,0.00,,OVC008,0.00,VWS V14.01,2013-04-13 07:54:00,
2013-04-13 02:59:00,32.5,29.4,29.90,WNW,285,6.0,12.0,88,0.00,,OVC008,0.00,VWS V14.01,2013-04-13 07:59:00,
2013-04-13 03:04:00,32.5,29.4,29.90,WNW,286,3.0,5.0,88,0.00,,OVC008,0.00,VWS V14.01,2013-04-13 08:04:00,
2013-04-13 03:09:00,32.5,29.4,29.90,WNW,293,6.0,10.0,88,0.00,,OVC008,0.00,VWS V14.01,2013-04-13 08:09:00,
2013-04-13 03:14:00,32.5,29.6,29.90,WNW,291,4.0,10.0,89,0.00,,OVC008,0.00,VWS V14.01,2013-04-13 08:14:00,
2013-04-13 03:19:00,32.5,29.4,29.90,WNW,290,5.0,10.0,88,0.00,,OVC008,0.00,VWS V14.01,2013-04-13 08:19:00,
2013-04-13 03:24:00,32.5,29.4,29.90,West,279,6.0,10.0,88,0.00,,OVC008,0.00,VWS V14.01,2013-04-13 08:24:00,
2013-04-13 03:30:00,32.5,29.4,29.90,West,274,7.0,10.0,88,0.00,,OVC008,0.00,VWS V14.01,2013-04-13 08:30:00,
2013-04-13 03:35:00,32.5,29.1,29.90,WNW,294,10.0,12.0,87,0.00,,OVC008,0.00,VWS V14.01,2013-04-13 08:35:00,
2013-04-13 03:40:00,32.5,29.1,29.90,WNW,287,4.0,12.0,87,0.00,,OVC008,0.00,VWS V14.01,2013-04-13 08:40:00,
2013-04-13 03:45:00,32.5,29.1,29.90,West,274,5.0,12.0,87,0.00,,OVC008,0.00,VWS V14.01,2013-04-13 08:45:00,
2013-04-13 03:50:00,32.5,29.1,29.90,WNW,284,6.0,12.0,87,0.00,,OVC008,0.00,VWS V14.01,2013-04-13 08:50:00,
2013-04-13 03:55:00,32.5,29.1,29.90,West,281,6.0,12.0,87,0.00,,OVC008,0.00,VWS V14.01,2013-04-13 08:55:00,
2013-04-13 04:00:00,32.5,29.1,29.90,WNW,298,8.0,12.0,87,0.00,,OVC008,0.00,VWS V14.01,2013-04-13 09:00:00,
2013-04-13 04:05:00,32.5,28.8,29.90,West,280,7.0,11.0,86,0.00,,OVC008,0.00,VWS V14.01,2013-04-13 09:05:00,
2013-04-13 04:10:00,32.5,29.1,29.91,West,280,6.0,11.0,87,0.00,,OVC008,0.00,VWS V14.01,2013-04-13 09:10:00,
2013-04-13 04:16:00,32.5,29.1,29.90,WNW,284,8.0,13.0,87,0.00,,OVC008,0.00,VWS V14.01,2013-04-13 09:16:00,
2013-04-13 04:21:00,32.5,29.1,29.91,WNW,292,4.0,13.0,87,0.00,,OVC008,0.00,VWS V14.01,2013-04-13 09:21:00,
2013-04-13 04:26:00,32.5,29.1,29.91,WNW,290,5.0,13.0,87,0.00,,OVC008,0.00,VWS V14.01,2013-04-13 09:26:00,
2013-04-13 04:31:00,32.4,29.0,29.91,WNW,286,6.0,13.0,87,0.00,,OVC008,0.00,VWS V14.01,2013-04-13 09:31:00,
2013-04-13 04:37:00,32.5,29.1,29.91,WNW,295,3.0,13.0,87,0.00,,OVC008,0.00,VWS V14.01,2013-04-13 09:37:00,
2013-04-13 04:42:00,32.4,29.0,29.91,WNW,290,6.0,13.0,87,0.00,,OVC008,0.00,VWS V14.01,2013-04-13 09:42:00,
2013-04-13 04:47:00,32.4,29.0,29.91,West,280,6.0,13.0,87,0.00,,OVC008,0.00,VWS V14.01,2013-04-13 09:47:00,
2013-04-13 04:52:00,32.3,28.9,29.91,West,280,10.0,13.0,87,0.00,,OVC008,0.00,VWS V14.01,2013-04-13 09:52:00,
2013-04-13 04:57:00,32.2,28.5,29.91,WNW,288,10.0,13.0,86,0.00,,OVC008,0.00,VWS V14.01,2013-04-13 09:57:00,
2013-04-13 05:02:00,32.1,28.4,29.91,WNW,289,5.0,13.0,86,0.00,,OVC008,0.00,VWS V14.01,2013-04-13 10:02:00,
2013-04-13 05:07:00,32.0,28.3,29.91,WNW,292,8.0,10.0,86,0.00,,OVC008,0.00,VWS V14.01,2013-04-13 10:07:00,
2013-04-13 05:12:00,31.9,28.2,29.91,West,281,4.0,10.0,86,0.00,,OVC008,0.00,VWS V14.01,2013-04-13 10:12:00,
2013-04-13 05:18:00,31.8,28.4,29.91,West,265,8.0,10.0,87,0.00,,OVC008,0.00,VWS V14.01,2013-04-13 10:18:00,
2013-04-13 05:23:00,31.8,28.1,29.91,WNW,292,3.0,10.0,86,0.00,,OVC008,0.00,VWS V14.01,2013-04-13 10:23:00,
2013-04-13 05:28:00,31.8,28.1,29.91,WNW,288,6.0,10.0,86,0.00,,OVC008,0.00,VWS V14.01,2013-04-13 10:28:00,
2013-04-13 05:33:00,31.8,28.1,29.91,WNW,296,5.0,10.0,86,0.00,,OVC008,0.00,VWS V14.01,2013-04-13 10:33:00,
2013-04-13 05:38:00,31.7,28.3,29.91,West,277,6.0,10.0,87,0.00,,OVC008,0.00,VWS V14.01,2013-04-13 10:38:00,
2013-04-13 05:43:00,31.8,28.4,29.91,West,275,3.0,10.0,87,0.00,,OVC008,0.00,VWS V14.01,2013-04-13 10:43:00,
2013-04-13 05:48:00,31.8,28.4,29.91,West,274,6.0,10.0,87,0.00,,OVC008,0.00,VWS V14.01,2013-04-13 10:48:00,
2013-04-13 05:53:00,31.8,28.4,29.91,West,281,6.0,10.0,87,0.00,,OVC008,0.00,VWS V14.01,2013-04-13 10:53:00,
2013-04-13 05:59:00,31.9,28.5,29.91,NW,309,8.0,10.0,87,0.00,,OVC008,0.00,VWS V14.01,2013-04-13 10:59:00,
2013-04-13 06:04:00,31.9,28.5,29.91,West,272,8.0,8.0,87,0.00,,OVC008,0.00,VWS V14.01,2013-04-13 11:04:00,
2013-04-13 06:09:00,32.0,28.3,29.91,West,280,4.0,12.0,86,0.00,,OVC008,0.00,VWS V14.01,2013-04-13 11:09:00,
2013-04-13 06:14:00,32.0,28.3,29.91,West,279,5.0,12.0,86,0.00,,OVC008,0.00,VWS V14.01,2013-04-13 11:14:00,
2013-04-13 06:19:00,32.1,28.1,29.92,West,272,8.0,12.0,85,0.00,,OVC008,0.00,VWS V14.01,2013-04-13 11:19:00,
2013-04-13 06:24:00,32.0,27.7,29.92,West,281,7.0,14.0,84,0.00,,OVC008,0.00,VWS V14.01,2013-04-13 11:24:00,
2013-04-13 06:29:00,31.9,27.6,29.92,WNW,289,5.0,14.0,84,0.00,,OVC008,0.00,VWS V14.01,2013-04-13 11:29:00,
2013-04-13 06:34:00,31.9,27.6,29.92,West,269,6.0,14.0,84,0.00,,OVC008,0.00,VWS V14.01,2013-04-13 11:34:00,
2013-04-13 06:39:00,31.9,27.6,29.92,West,277,7.0,14.0,84,0.00,,OVC008,0.00,VWS V14.01,2013-04-13 11:39:00,
2013-04-13 06:44:00,31.9,27.6,29.93,West,275,7.0,14.0,84,0.00,,OVC008,0.00,VWS V14.01,2013-04-13 11:44:00,
2013-04-13 06:49:00,31.9,27.6,29.93,West,275,5.0,14.0,84,0.00,,OVC008,0.00,VWS V14.01,2013-04-13 11:49:00,
2013-04-13 06:54:00,31.9,27.9,29.93,West,281,4.0,14.0,85,0.00,,OVC008,0.00,VWS V14.01,2013-04-13 11:54:00,
2013-04-13 06:59:00,31.9,28.2,29.93,West,276,9.0,14.0,86,0.00,,OVC008,0.00,VWS V14.01,2013-04-13 11:59:00,
2013-04-13 07:04:00,31.9,28.2,29.93,West,267,8.0,10.0,86,0.00,,OVC008,0.00,VWS V14.01,2013-04-13 12:04:00,
2013-04-13 07:09:00,31.9,27.9,29.94,WNW,286,9.0,10.0,85,0.00,,OVC008,0.00,VWS V14.01,2013-04-13 12:09:00,
2013-04-13 07:14:00,31.9,27.3,29.94,NW,306,8.0,12.0,83,0.00,,OVC008,0.00,VWS V14.01,2013-04-13 12:14:00,
2013-04-13 07:19:00,32.0,27.1,29.94,NW,304,7.0,13.0,82,0.00,,OVC008,0.00,VWS V14.01,2013-04-13 12:19:00,
2013-04-13 07:25:00,32.1,26.9,29.94,WNW,283,7.0,13.0,81,0.00,,OVC008,0.00,VWS V14.01,2013-04-13 12:25:00,
2013-04-13 07:30:00,32.1,26.9,29.94,West,275,10.0,13.0,81,0.00,,OVC008,0.00,VWS V14.01,2013-04-13 12:30:00,
2013-04-13 07:35:00,32.2,27.0,29.94,WNW,288,4.0,13.0,81,0.00,,OVC008,0.00,VWS V14.01,2013-04-13 12:35:00,
2013-04-13 07:40:00,32.3,27.4,29.94,NW,314,8.0,13.0,82,0.00,,OVC008,0.00,VWS V14.01,2013-04-13 12:40:00,
2013-04-13 07:45:00,32.3,27.7,29.95,WNW,300,6.0,13.0,83,0.00,,OVC008,0.00,VWS V14.01,2013-04-13 12:45:00,
2013-04-13 07:50:00,32.5,27.9,29.95,WNW,292,3.0,13.0,83,0.00,,OVC008,0.00,VWS V14.01,2013-04-13 12:50:00,
2013-04-13 07:55:00,32.4,27.8,29.95,WNW,303,8.0,13.0,83,0.00,,OVC008,0.00,VWS V14.01,2013-04-13 12:55:00,
2013-04-13 08:00:00,32.3,27.4,29.95,WNW,288,9.0,13.0,82,0.00,,OVC008,0.00,VWS V14.01,2013-04-13 13:00:00,
2013-04-13 08:05:00,32.2,27.6,29.95,West,279,6.0,13.0,83,0.00,,OVC008,0.00,VWS V14.01,2013-04-13 13:05:00,
2013-04-13 08:10:00,32.3,27.7,29.96,WNW,294,5.0,15.0,83,0.00,,OVC008,0.00,VWS V14.01,2013-04-13 13:10:00,
2013-04-13 08:15:00,32.2,27.6,29.95,NW,313,8.0,15.0,83,0.00,,OVC008,0.00,VWS V14.01,2013-04-13 13:15:00,
2013-04-13 08:20:00,32.1,27.5,29.95,WNW,301,5.0,15.0,83,0.00,,OVC008,0.00,VWS V14.01,2013-04-13 13:20:00,
2013-04-13 08:25:00,32.2,27.6,29.95,WNW,299,7.0,15.0,83,0.00,,OVC008,0.00,VWS V14.01,2013-04-13 13:25:00,
2013-04-13 08:30:00,32.2,27.9,29.95,NW,309,6.0,15.0,84,0.00,,OVC008,0.00,VWS V14.01,2013-04-13 13:30:00,
2013-04-13 08:36:00,32.4,27.8,29.95,West,279,8.0,15.0,83,0.00,,OVC008,0.00,VWS V14.01,2013-04-13 13:36:00,
2013-04-13 08:41:00,32.6,28.0,29.95,NW,325,10.0,15.0,83,0.00,,OVC008,0.00,VWS V14.01,2013-04-13 13:41:00,
2013-04-13 08:46:00,33.0,28.4,29.95,WNW,296,6.0,15.0,83,0.00,,OVC008,0.00,VWS V14.01,2013-04-13 13:46:00,
2013-04-13 08:51:00,33.0,28.4,29.96,WNW,294,6.0,15.0,83,0.00,,OVC008,0.00,VWS V14.01,2013-04-13 13:51:00,
2013-04-13 08:56:00,32.8,27.9,29.95,NNW,327,15.0,15.0,82,0.00,,OVC008,0.00,VWS V14.01,2013-04-13 13:56:00,
2013-04-13 09:02:00,32.9,28.3,29.96,West,272,6.0,15.0,83,0.00,,OVC008,0.00,VWS V14.01,2013-04-13 14:02:00,
2013-04-13 09:08:00,32.8,28.2,29.96,WNW,290,7.0,10.0,83,0.00,,OVC008,0.00,VWS V14.01,2013-04-13 14:08:00,
2013-04-13 09:13:00,32.9,28.3,29.96,WSW,257,6.0,10.0,83,0.00,,OVC008,0.00,VWS V14.01,2013-04-13 14:13:00,
2013-04-13 09:18:00,32.9,28.0,29.96,NW,326,7.0,13.0,82,0.00,,OVC008,0.00,VWS V14.01,2013-04-13 14:18:00,
2013-04-13 09:23:00,32.9,28.0,29.96,WNW,289,4.0,13.0,82,0.00,,OVC008,0.00,VWS V14.01,2013-04-13 14:23:00,
2013-04-13 09:28:00,32.9,28.3,29.97,WNW,283,7.0,13.0,83,0.00,,OVC008,0.00,VWS V14.01,2013-04-13 14:28:00,
2013-04-13 09:33:00,32.8,28.2,29.97,WNW,285,5.0,14.0,83,0.00,,OVC008,0.00,VWS V14.01,2013-04-13 14:33:00,
2013-04-13 09:38:00,32.6,28.0,29.97,West,264,7.0,14.0,83,0.00,,OVC008,0.00,VWS V14.01,2013-04-13 14:38:00,
2013-04-13 09:44:00,32.6,28.0,29.97,West,270,7.0,14.0,83,0.00,,OVC008,0.00,VWS V14.01,2013-04-13 14:44:00,
2013-04-13 09:49:00,32.8,28.2,29.98,West,267,9.0,14.0,83,0.00,,OVC008,0.00,VWS V14.01,2013-04-13 14:49:00,
2013-04-13 09:54:00,32.8,28.2,29.98,WNW,291,7.0,14.0,83,0.00,,OVC008,0.00,VWS V14.01,2013-04-13 14:54:00,
2013-04-13 09:59:00,32.9,28.3,29.98,NW,307,8.0,14.0,83,0.00,,OVC008,0.00,VWS V14.01,2013-04-13 14:59:00,
2013-04-13 10:04:00,33.1,28.8,29.98,WNW,283,8.0,10.0,84,0.00,,OVC008,0.00,VWS V14.01,2013-04-13 15:04:00,
2013-04-13 10:09:00,33.1,28.5,29.98,WNW,298,9.0,13.0,83,0.00,,OVC008,0.00,VWS V14.01,2013-04-13 15:09:00,
2013-04-13 10:14:00,33.4,28.8,29.99,West,277,6.0,13.0,83,0.00,,OVC008,0.00,VWS V14.01,2013-04-13 15:14:00,
2013-04-13 10:19:00,33.4,28.5,29.99,West,264,6.0,13.0,82,0.00,,OVC008,0.00,VWS V14.01,2013-04-13 15:19:00,
2013-04-13 10:24:00,33.5,28.6,29.99,WNW,286,9.0,13.0,82,0.00,,OVC008,0.00,VWS V14.01,2013-04-13 15:24:00,
2013-04-13 10:29:00,33.8,28.9,29.99,WNW,283,3.0,13.0,82,0.00,,OVC008,0.00,VWS V14.01,2013-04-13 15:29:00,
2013-04-13 10:34:00,33.9,28.7,29.99,NW,325,12.0,13.0,81,0.00,,OVC008,0.00,VWS V14.01,2013-04-13 15:34:00,
2013-04-13 10:39:00,34.3,29.4,29.98,WNW,283,10.0,13.0,82,0.00,,OVC008,0.00,VWS V14.01,2013-04-13 15:39:00,
2013-04-13 10:44:00,35.1,30.2,29.98,NW,304,5.0,13.0,82,0.00,,OVC008,0.00,VWS V14.01,2013-04-13 15:44:00,
2013-04-13 10:49:00,35.6,30.0,29.98,WNW,292,7.0,13.0,80,0.00,,OVC008,0.00,VWS V14.01,2013-04-13 15:49:00,
2013-04-13 10:54:00,35.6,29.7,29.99,West,267,11.0,13.0,79,0.00,,OVC008,0.00,VWS V14.01,2013-04-13 15:54:00,
2013-04-13 11:00:00,35.5,29.6,29.99,WNW,287,3.0,13.0,79,0.00,,OVC008,0.00,VWS V14.01,2013-04-13 16:00:00,
2013-04-13 11:05:00,35.8,29.9,29.99,WSW,245,6.0,10.0,79,0.00,,OVC008,0.00,VWS V14.01,2013-04-13 16:05:00,
2013-04-13 11:10:00,35.7,29.8,29.99,West,261,10.0,12.0,79,0.00,,OVC008,0.00,VWS V14.01,2013-04-13 16:10:00,
2013-04-13 11:15:00,35.6,29.7,29.99,West,277,6.0,13.0,79,0.00,,OVC008,0.00,VWS V14.01,2013-04-13 16:15:00,
2013-04-13 11:20:00,35.9,29.7,29.99,West,265,9.0,13.0,78,0.00,,OVC008,0.00,VWS V14.01,2013-04-13 16:20:00,
2013-04-13 11:25:00,36.4,30.2,29.99,West,266,8.0,13.0,78,0.00,,OVC008,0.00,VWS V14.01,2013-04-13 16:25:00,
2013-04-13 11:30:00,36.5,30.3,29.99,WNW,288,10.0,13.0,78,0.00,,OVC008,0.00,VWS V14.01,2013-04-13 16:30:00,
2013-04-13 11:35:00,36.5,30.3,29.98,WNW,294,9.0,13.0,78,0.00,,OVC008,0.00,VWS V14.01,2013-04-13 16:35:00,
2013-04-13 11:40:00,37.4,31.5,29.99,WNW,300,6.0,13.0,79,0.00,,OVC008,0.00,VWS V14.01,2013-04-13 16:40:00,
2013-04-13 11:45:00,37.2,30.7,29.98,West,263,6.0,13.0,77,0.00,,OVC008,0.00,VWS V14.01,2013-04-13 16:45:00,
2013-04-13 11:50:00,37.8,31.2,29.98,West,280,7.0,13.0,77,0.00,,OVC008,0.00,VWS V14.01,2013-04-13 16:50:00,
2013-04-13 11:56:00,38.0,30.8,29.97,West,276,9.0,15.0,75,0.00,,OVC008,0.00,VWS V14.01,2013-04-13 16:56:00,
2013-04-13 12:01:00,39.2,32.6,29.97,WNW,300,9.0,15.0,77,0.00,,OVC008,0.00,VWS V14.01,2013-04-13 17:01:00,
2013-04-13 12:07:00,39.6,32.7,29.97,WNW,295,9.0,16.0,76,0.00,,OVC008,0.00,VWS V14.01,2013-04-13 17:07:00,
2013-04-13 12:12:00,39.7,31.8,29.97,WNW,288,8.0,16.0,73,0.00,,OVC008,0.00,VWS V14.01,2013-04-13 17:12:00,
2013-04-13 12:17:00,40.0,32.4,29.97,West,277,10.0,16.0,74,0.00,,OVC008,0.00,VWS V14.01,2013-04-13 17:17:00,
2013-04-13 12:23:00,39.6,32.0,29.97,WNW,301,6.0,16.0,74,0.00,,OVC008,0.00,VWS V14.01,2013-04-13 17:23:00,
2013-04-13 12:28:00,40.0,32.1,29.97,WNW,294,8.0,16.0,73,0.00,,OVC008,0.00,VWS V14.01,2013-04-13 17:28:00,
2013-04-13 12:33:00,39.8,32.2,29.97,West,279,7.0,16.0,74,0.00,,OVC008,0.00,VWS V14.01,2013-04-13 17:33:00,
2013-04-13 12:38:00,39.7,31.4,29.97,West,280,6.0,16.0,72,0.00,,OVC008,0.00,VWS V14.01,2013-04-13 17:38:00,
2013-04-13 12:43:00,41.1,32.8,29.97,West,267,8.0,16.0,72,0.00,,OVC008,0.00,VWS V14.01,2013-04-13 17:43:00,
2013-04-13 12:48:00,41.3,32.3,29.97,WNW,285,9.0,16.0,70,0.00,,OVC008,0.00,VWS V14.01,2013-04-13 17:48:00,
2013-04-13 12:53:00,41.6,32.2,29.97,NW,313,6.0,16.0,69,0.00,,OVC008,0.00,VWS V14.01,2013-04-13 17:53:00,
2013-04-13 12:58:00,41.6,33.3,29.97,WNW,303,9.0,16.0,72,0.00,,OVC008,0.00,VWS V14.01,2013-04-13 17:58:00,
2013-04-13 13:03:00,42.0,33.6,29.97,WNW,285,5.0,16.0,72,0.00,,OVC008,0.00,VWS V14.01,2013-04-13 18:03:00,
2013-04-13 13:08:00,40.7,32.0,29.97,West,271,11.0,11.0,71,0.00,,OVC008,0.00,VWS V14.01,2013-04-13 18:08:00,
2013-04-13 13:13:00,40.2,31.6,29.97,WNW,290,5.0,12.0,71,0.00,,OVC008,0.00,VWS V14.01,2013-04-13 18:13:00,
2013-04-13 13:18:00,40.5,32.2,29.97,WNW,292,6.0,12.0,72,0.00,,OVC008,0.00,VWS V14.01,2013-04-13 18:18:00,
2013-04-13 13:23:00,40.2,31.6,29.97,West,279,5.0,12.0,71,0.00,,OVC008,0.00,VWS V14.01,2013-04-13 18:23:00,
2013-04-13 13:27:00,40.6,32.3,29.97,WNW,289,4.0,12.0,72,0.00,,OVC008,0.00,VWS V14.01,2013-04-13 18:27:00,
2013-04-13 13:28:00,40.7,32.4,29.97,West,278,3.0,12.0,72,0.00,,OVC008,0.00,VWS V14.01,2013-04-13 18:28:00,
2013-04-13 13:33:00,40.9,32.6,29.96,WSW,242,5.0,12.0,72,0.00,,OVC008,0.00,VWS V14.01,2013-04-13 18:33:00,
2013-04-13 13:38:00,40.9,32.6,29.96,WNW,302,3.0,12.0,72,0.00,,OVC008,0.00,VWS V14.01,2013-04-13 18:38:00,
2013-04-13 13:43:00,41.6,33.3,29.96,West,280,5.0,12.0,72,0.00,,OVC008,0.00,VWS V14.01,2013-04-13 18:43:00,
2013-04-13 13:48:00,42.8,34.4,29.95,WNW,294,6.0,13.0,72,0.00,,OVC008,0.00,VWS V14.01,2013-04-13 18:48:00,
2013-04-13 13:53:00,43.2,33.7,29.96,WNW,294,9.0,13.0,69,0.00,,OVC008,0.00,VWS V14.01,2013-04-13 18:53:00,
2013-04-13 13:58:00,42.8,33.3,29.95,WNW,285,6.0,13.0,69,0.00,,OVC008,0.00,VWS V14.01,2013-04-13 18:58:00,
2013-04-13 14:03:00,43.0,33.9,29.95,WSW,252,8.0,13.0,70,0.00,,OVC008,0.00,VWS V14.01,2013-04-13 19:03:00,
2013-04-13 14:08:00,43.1,34.0,29.95,West,279,7.0,9.0,70,0.00,,OVC008,0.00,VWS V14.01,2013-04-13 19:08:00,
2013-04-13 14:13:00,42.8,33.0,29.95,WNW,299,5.0,10.0,68,0.00,,OVC008,0.00,VWS V14.01,2013-04-13 19:13:00,
2013-04-13 14:18:00,45.0,35.5,29.94,WSW,242,8.0,10.0,69,0.00,,OVC008,0.00,VWS V14.01,2013-04-13 19:18:00,
2013-04-13 14:23:00,45.4,35.8,29.94,WNW,293,4.0,11.0,69,0.00,,OVC008,0.00,VWS V14.01,2013-04-13 19:23:00,
2013-04-13 14:28:00,46.7,36.0,29.94,NW,315,13.0,13.0,66,0.00,,OVC008,0.00,VWS V14.01,2013-04-13 19:28:00,
2013-04-13 14:33:00,45.6,33.8,29.94,NW,316,7.0,14.0,63,0.00,,OVC008,0.00,VWS V14.01,2013-04-13 19:33:00,
2013-04-13 14:38:00,44.6,34.0,29.94,WNW,288,6.0,14.0,66,0.00,,OVC008,0.00,VWS V14.01,2013-04-13 19:38:00,
2013-04-13 14:43:00,44.1,33.1,29.94,West,277,7.0,14.0,65,0.00,,OVC008,0.00,VWS V14.01,2013-04-13 19:43:00,
2013-04-13 14:48:00,43.6,33.0,29.94,West,277,10.0,14.0,66,0.00,,OVC008,0.00,VWS V14.01,2013-04-13 19:48:00,
2013-04-13 14:53:00,43.9,33.3,29.93,NNW,329,4.0,14.0,66,0.00,,OVC008,0.00,VWS V14.01,2013-04-13 19:53:00,
2013-04-13 14:58:00,43.3,32.3,29.93,NW,311,9.0,14.0,65,0.00,,OVC008,0.00,VWS V14.01,2013-04-13 19:58:00,
2013-04-13 15:03:00,43.3,33.1,29.93,West,269,5.0,5.0,67,0.00,,OVC008,0.00,VWS V14.01,2013-04-13 20:03:00,
2013-04-13 15:08:00,45.3,35.0,29.93,WNW,286,7.0,10.0,67,0.00,,OVC008,0.00,VWS V14.01,2013-04-13 20:08:00,
2013-04-13 15:14:00,45.8,35.1,29.93,West,281,10.0,10.0,66,0.00,,OVC008,0.00,VWS V14.01,2013-04-13 20:14:00,
2013-04-13 15:19:00,45.9,34.4,29.92,West,274,9.0,12.0,64,0.00,,OVC008,0.00,VWS V14.01,2013-04-13 20:19:00,
2013-04-13 15:24:00,47.0,34.7,29.92,WNW,298,3.0,12.0,62,0.00,,OVC008,0.00,VWS V14.01,2013-04-13 20:24:00,
2013-04-13 15:29:00,46.6,34.7,29.92,West,279,4.0,12.0,63,0.00,,OVC008,0.00,VWS V14.01,2013-04-13 20:29:00,
2013-04-13 15:34:00,46.0,34.1,29.92,NW,304,5.0,12.0,63,0.00,,OVC008,0.00,VWS V14.01,2013-04-13 20:34:00,
2013-04-13 15:39:00,44.8,33.4,29.92,WNW,300,5.0,12.0,64,0.00,,OVC008,0.00,VWS V14.01,2013-04-13 20:39:00,
2013-04-13 15:44:00,46.1,33.8,29.92,WNW,295,6.0,12.0,62,0.00,,OVC008,0.00,VWS V14.01,2013-04-13 20:44:00,
2013-04-13 15:49:00,46.1,34.2,29.92,West,280,4.0,13.0,63,0.00,,OVC008,0.00,VWS V14.01,2013-04-13 20:49:00,
2013-04-13 15:54:00,46.0,34.5,29.92,West,267,5.0,13.0,64,0.00,,OVC008,0.00,VWS V14.01,2013-04-13 20:54:00,
2013-04-13 15:59:00,45.0,33.6,29.92,WNW,301,5.0,13.0,64,0.00,,OVC008,0.00,VWS V14.01,2013-04-13 20:59:00,
2013-04-13 16:04:00,45.7,34.6,29.92,WNW,288,5.0,5.0,65,0.00,,OVC008,0.00,VWS V14.01,2013-04-13 21:04:00,
2013-04-13 16:09:00,47.0,35.9,29.92,WNW,299,5.0,9.0,65,0.00,,OVC008,0.00,VWS V14.01,2013-04-13 21:09:00,
2013-04-13 16:14:00,46.3,33.6,29.92,WSW,250,5.0,10.0,61,0.00,,OVC008,0.00,VWS V14.01,2013-04-13 21:14:00,
2013-04-13 16:19:00,45.7,33.8,29.92,WNW,300,6.0,10.0,63,0.00,,OVC008,0.00,VWS V14.01,2013-04-13 21:19:00,
2013-04-13 16:24:00,45.5,34.0,29.92,West,263,5.0,12.0,64,0.00,,OVC008,0.00,VWS V14.01,2013-04-13 21:24:00,
2013-04-13 16:29:00,45.3,34.2,29.92,West,275,7.0,12.0,65,0.00,,OVC008,0.00,VWS V14.01,2013-04-13 21:29:00,
2013-04-13 16:34:00,45.9,34.4,29.91,WNW,292,8.0,13.0,64,0.00,,OVC008,0.00,VWS V14.01,2013-04-13 21:34:00,
2013-04-13 16:39:00,45.8,34.3,29.91,West,281,7.0,13.0,64,0.00,,OVC008,0.00,VWS V14.01,2013-04-13 21:39:00,
2013-04-13 16:44:00,44.9,33.9,29.91,WNW,292,1.0,13.0,65,0.00,,OVC008,0.00,VWS V14.01,2013-04-13 21:44:00,
2013-04-13 16:49:00,45.6,34.5,29.91,WNW,284,6.0,13.0,65,0.00,,OVC008,0.00,VWS V14.01,2013-04-13 21:49:00,
2013-04-13 16:54:00,45.7,33.8,29.91,NW,319,7.0,13.0,63,0.00,,OVC008,0.00,VWS V14.01,2013-04-13 21:54:00,
2013-04-13 16:59:00,45.4,34.0,29.91,NW,306,5.0,13.0,64,0.00,,OVC008,0.00,VWS V14.01,2013-04-13 21:59:00,
2013-04-13 17:04:00,45.6,34.1,29.91,West,269,4.0,7.0,64,0.00,,OVC008,0.00,VWS V14.01,2013-04-13 22:04:00,
2013-04-13 17:09:00,46.4,34.5,29.91,WSW,246,7.0,10.0,63,0.00,,OVC008,0.00,VWS V14.01,2013-04-13 22:09:00,
2013-04-13 17:14:00,46.6,35.1,29.91,WNW,298,4.0,10.0,64,0.00,,OVC008,0.00,VWS V14.01,2013-04-13 22:14:00,
2013-04-13 17:19:00,46.1,34.2,29.91,West,266,5.0,10.0,63,0.00,,OVC008,0.00,VWS V14.01,2013-04-13 22:19:00,
2013-04-13 17:24:00,45.4,34.0,29.91,NW,310,5.0,10.0,64,0.00,,OVC008,0.00,VWS V14.01,2013-04-13 22:24:00,
2013-04-13 17:29:00,45.3,34.2,29.90,West,267,4.0,10.0,65,0.00,,OVC008,0.00,VWS V14.01,2013-04-13 22:29:00,
2013-04-13 17:34:00,45.6,34.5,29.90,WNW,301,7.0,10.0,65,0.00,,OVC008,0.00,VWS V14.01,2013-04-13 22:34:00,
2013-04-13 17:39:00,46.3,35.6,29.90,WNW,302,5.0,10.0,66,0.00,,OVC008,0.00,VWS V14.01,2013-04-13 22:39:00,
2013-04-13 17:44:00,45.9,34.8,29.90,NW,312,3.0,10.0,65,0.00,,OVC008,0.00,VWS V14.01,2013-04-13 22:44:00,
2013-04-13 17:50:00,45.7,34.2,29.91,WNW,298,2.0,10.0,64,0.00,,OVC008,0.00,VWS V14.01,2013-04-13 22:50:00,
2013-04-13 17:55:00,45.5,34.0,29.91,West,260,5.0,10.0,64,0.00,,OVC008,0.00,VWS V14.01,2013-04-13 22:55:00,
2013-04-13 18:00:00,45.1,33.7,29.91,West,273,5.0,10.0,64,0.00,,OVC008,0.00,VWS V14.01,2013-04-13 23:00:00,
2013-04-13 18:05:00,44.7,34.0,29.91,West,268,4.0,5.0,66,0.00,,OVC008,0.00,VWS V14.01,2013-04-13 23:05:00,
2013-04-13 18:10:00,44.7,34.0,29.90,NW,314,3.0,6.0,66,0.00,,OVC008,0.00,VWS V14.01,2013-04-13 23:10:00,
2013-04-13 18:15:00,45.0,34.7,29.91,WNW,286,3.0,6.0,67,0.00,,OVC008,0.00,VWS V14.01,2013-04-13 23:15:00,
2013-04-13 18:20:00,45.3,35.0,29.91,WNW,298,3.0,6.0,67,0.00,,OVC008,0.00,VWS V14.01,2013-04-13 23:20:00,
2013-04-13 18:25:00,45.3,35.0,29.91,NW,315,2.0,7.0,67,0.00,,OVC008,0.00,VWS V14.01,2013-04-13 23:25:00,
2013-04-13 18:30:00,45.1,34.0,29.90,West,274,3.0,7.0,65,0.00,,OVC008,0.00,VWS V14.01,2013-04-13 23:30:00,
2013-04-13 18:35:00,44.9,34.6,29.90,WNW,302,6.0,7.0,67,0.00,,OVC008,0.00,VWS V14.01,2013-04-13 23:35:00,
2013-04-13 18:40:00,44.6,34.3,29.90,NW,321,1.0,7.0,67,0.00,,OVC008,0.00,VWS V14.01,2013-04-13 23:40:00,
2013-04-13 18:45:00,44.5,34.2,29.90,WNW,290,1.0,7.0,67,0.00,,OVC008,0.00,VWS V14.01,2013-04-13 23:45:00,
2013-04-13 18:50:00,44.6,35.1,29.90,NNW,345,2.0,7.0,69,0.00,,OVC008,0.00,VWS V14.01,2013-04-13 23:50:00,
2013-04-13 18:55:00,44.6,34.3,29.90,NNW,337,3.0,7.0,67,0.00,,OVC008,0.00,VWS V14.01,2013-04-13 23:55:00,
2013-04-13 19:00:00,44.7,35.2,29.90,NNW,330,1.0,7.0,69,0.00,,OVC008,0.00,VWS V14.01,2013-04-14 00:00:00,
2013-04-13 19:05:00,44.6,34.7,29.90,NNW,332,4.0,4.0,68,0.00,,OVC008,0.00,VWS V14.01,2013-04-14 00:05:00,
2013-04-13 19:10:00,44.4,34.1,29.89,NNW,336,0.0,4.0,67,0.00,,OVC008,0.00,VWS V14.01,2013-04-14 00:10:00,
2013-04-13 19:15:00,44.2,34.0,29.89,NNW,336,0.0,4.0,67,0.00,,OVC008,0.00,VWS V14.01,2013-04-14 00:15:00,
2013-04-13 19:20:00,44.1,33.9,29.89,NNW,336,0.0,4.0,67,0.00,,OVC008,0.00,VWS V14.01,2013-04-14 00:20:00,
2013-04-13 19:25:00,43.9,34.0,29.88,NNW,336,1.0,4.0,68,0.00,,OVC008,0.00,VWS V14.01,2013-04-14 00:25:00,
2013-04-13 19:30:00,43.8,33.6,29.88,NNW,336,0.0,4.0,67,0.00,,OVC008,0.00,VWS V14.01,2013-04-14 00:30:00,
2013-04-13 19:35:00,43.7,33.8,29.88,NNW,336,0.0,4.0,68,0.00,,OVC008,0.00,VWS V14.01,2013-04-14 00:35:00,
2013-04-13 19:40:00,43.7,34.2,29.88,NNW,336,0.0,4.0,69,0.00,,OVC008,0.00,VWS V14.01,2013-04-14 00:40:00,
2013-04-13 19:45:00,43.6,34.8,29.89,NNW,336,0.0,4.0,71,0.00,,OVC008,0.00,VWS V14.01,2013-04-14 00:45:00,
2013-04-13 19:50:00,43.5,34.7,29.88,NNW,336,0.0,4.0,71,0.00,,OVC008,0.00,VWS V14.01,2013-04-14 00:50:00,
2013-04-13 19:56:00,43.4,34.3,29.89,NNW,336,0.0,4.0,70,0.00,,OVC008,0.00,VWS V14.01,2013-04-14 00:56:00,
2013-04-13 20:01:00,43.3,34.9,29.89,NNW,336,0.0,4.0,72,0.00,,OVC008,0.00,VWS V14.01,2013-04-14 01:01:00,
2013-04-13 20:06:00,43.3,34.9,29.89,NNW,336,0.0,0.0,72,0.00,,OVC008,0.00,VWS V14.01,2013-04-14 01:06:00,
2013-04-13 20:11:00,43.2,35.1,29.89,NNW,336,0.0,0.0,73,0.00,,OVC008,0.00,VWS V14.01,2013-04-14 01:11:00,
2013-04-13 20:16:00,43.2,36.2,29.89,NNW,336,0.0,0.0,76,0.00,,OVC008,0.00,VWS V14.01,2013-04-14 01:16:00,
2013-04-13 20:21:00,43.1,35.7,29.89,NNW,336,0.0,1.0,75,0.00,,OVC008,0.00,VWS V14.01,2013-04-14 01:21:00,
2013-04-13 20:26:00,42.9,35.2,29.90,NNW,336,0.0,1.0,74,0.00,,OVC008,0.00,VWS V14.01,2013-04-14 01:26:00,
2013-04-13 20:31:00,42.9,35.2,29.90,NNW,336,0.0,1.0,74,0.00,,OVC008,0.00,VWS V14.01,2013-04-14 01:31:00,
2013-04-13 20:36:00,42.8,35.8,29.90,NNW,336,0.0,1.0,76,0.00,,OVC008,0.00,VWS V14.01,2013-04-14 01:36:00,
2013-04-13 20:41:00,42.7,35.3,29.90,NNW,336,0.0,1.0,75,0.00,,OVC008,0.00,VWS V14.01,2013-04-14 01:41:00,
2013-04-13 20:47:00,42.5,35.8,29.91,NNW,336,0.0,2.0,77,0.00,,OVC008,0.00,VWS V14.01,2013-04-14 01:47:00,
2013-04-13 20:52:00,42.5,35.5,29.91,NNW,336,0.0,2.0,76,0.00,,OVC008,0.00,VWS V14.01,2013-04-14 01:52:00,
2013-04-13 20:57:00,42.5,36.1,29.91,NE,38,0.0,2.0,78,0.00,,OVC008,0.00,VWS V14.01,2013-04-14 01:57:00,
2013-04-13 21:02:00,42.4,36.0,29.91,NE,38,0.0,2.0,78,0.00,,OVC008,0.00,VWS V14.01,2013-04-14 02:02:00,
2013-04-13 21:07:00,42.4,35.7,29.91,NE,38,0.0,0.0,77,0.00,,OVC008,0.00,VWS V14.01,2013-04-14 02:07:00,
2013-04-13 21:12:00,42.3,36.3,29.92,NE,38,0.0,0.0,79,0.00,,OVC008,0.00,VWS V14.01,2013-04-14 02:12:00,
2013-04-13 21:17:00,42.3,35.6,29.91,ENE,78,0.0,2.0,77,0.00,,OVC008,0.00,VWS V14.01,2013-04-14 02:17:00,
2013-04-13 21:22:00,42.3,35.6,29.91,ENE,71,0.0,3.0,77,0.00,,OVC008,0.00,VWS V14.01,2013-04-14 02:22:00,
2013-04-13 21:27:00,42.4,35.0,29.91,ENE,76,0.0,3.0,75,0.00,,OVC008,0.00,VWS V14.01,2013-04-14 02:27:00,
2013-04-13 21:32:00,42.4,34.7,29.92,NNE,15,0.0,3.0,74,0.00,,OVC008,0.00,VWS V14.01,2013-04-14 02:32:00,
2013-04-13 21:37:00,42.5,34.5,29.92,NNE,20,0.0,3.0,73,0.00,,OVC008,0.00,VWS V14.01,2013-04-14 02:37:00,
2013-04-13 21:42:00,42.4,34.7,29.92,NNE,21,0.0,3.0,74,0.00,,OVC008,0.00,VWS V14.01,2013-04-14 02:42:00,
2013-04-13 21:47:00,42.3,34.6,29.92,ENE,63,0.0,3.0,74,0.00,,OVC008,0.00,VWS V14.01,2013-04-14 02:47:00,
2013-04-13 21:52:00,42.2,34.5,29.92,East,88,0.0,3.0,74,0.00,,OVC008,0.00,VWS V14.01,2013-04-14 02:52:00,
2013-04-13 21:57:00,42.3,34.6,29.92,East,87,1.0,3.0,74,0.00,,OVC008,0.00,VWS V14.01,2013-04-14 02:57:00,
2013-04-13 22:02:00,42.2,34.9,29.92,East,101,1.0,3.0,75,0.00,,OVC008,0.00,VWS V14.01,2013-04-14 03:02:00,
2013-04-13 22:07:00,42.2,34.5,29.92,East,101,1.0,5.0,74,0.00,,OVC008,0.00,VWS V14.01,2013-04-14 03:07:00,
2013-04-13 22:12:00,42.2,34.2,29.92,NE,53,1.0,5.0,73,0.00,,OVC008,0.00,VWS V14.01,2013-04-14 03:12:00,
2013-04-13 22:17:00,42.2,34.9,29.92,East,88,1.0,5.0,75,0.00,,OVC008,0.00,VWS V14.01,2013-04-14 03:17:00,
2013-04-13 22:22:00,42.1,34.4,29.92,ESE,113,2.0,5.0,74,0.00,,OVC008,0.00,VWS V14.01,2013-04-14 03:22:00,
2013-04-13 22:27:00,42.0,34.3,29.92,ESE,113,0.0,5.0,74,0.00,,OVC008,0.00,VWS V14.01,2013-04-14 03:27:00,
2013-04-13 22:32:00,41.9,34.2,29.93,NE,37,1.0,5.0,74,0.00,,OVC008,0.00,VWS V14.01,2013-04-14 03:32:00,
2013-04-13 22:37:00,41.9,34.2,29.93,ENE,75,0.0,5.0,74,0.00,,OVC008,0.00,VWS V14.01,2013-04-14 03:37:00,
2013-04-13 22:42:00,41.9,34.2,29.93,East,88,5.0,5.0,74,0.00,,OVC008,0.00,VWS V14.01,2013-04-14 03:42:00,
2013-04-13 22:47:00,41.8,33.8,29.93,East,90,0.0,5.0,73,0.00,,OVC008,0.00,VWS V14.01,2013-04-14 03:47:00,
2013-04-13 22:52:00,41.7,34.0,29.93,East,88,5.0,5.0,74,0.00,,OVC008,0.00,VWS V14.01,2013-04-14 03:52:00,
2013-04-13 22:58:00,41.7,34.0,29.93,NW,316,1.0,5.0,74,0.00,,OVC008,0.00,VWS V14.01,2013-04-14 03:58:00,
2013-04-13 23:00:00,41.7,34.0,29.93,East,85,1.0,5.0,74,0.00,,OVC008,0.00,VWS V14.01,2013-04-14 04:00:00,
2013-04-13 23:05:00,41.6,34.3,29.93,NNE,32,0.0,2.0,75,0.00,,OVC008,0.00,VWS V14.01,2013-04-14 04:05:00,
2013-04-13 23:10:00,41.5,34.2,29.93,NNE,26,3.0,8.0,75,0.00,,OVC008,0.00,VWS V14.01,2013-04-14 04:10:00,
2013-04-13 23:15:00,41.5,34.2,29.93,East,88,2.0,8.0,75,0.00,,OVC008,0.00,VWS V14.01,2013-04-14 04:15:00,
2013-04-13 23:20:00,41.4,34.1,29.92,NE,53,2.0,8.0,75,0.00,,OVC008,0.00,VWS V14.01,2013-04-14 04:20:00,
2013-04-13 23:25:00,41.3,34.0,29.91,East,86,1.0,9.0,75,0.00,,OVC008,0.00,VWS V14.01,2013-04-14 04:25:00,
2013-04-13 23:30:00,41.3,34.0,29.91,ENE,70,0.0,9.0,75,0.00,,OVC008,0.00,VWS V14.01,2013-04-14 04:30:00,
2013-04-13 23:35:00,41.2,34.2,29.91,East,88,1.0,9.0,76,0.00,,OVC008,0.00,VWS V14.01,2013-04-14 04:35:00,
2013-04-13 23:40:00,41.1,33.8,29.91,NE,43,2.0,9.0,75,0.00,,OVC008,0.00,VWS V14.01,2013-04-14 04:40:00,
2013-04-13 23:45:00,41.1,33.8,29.91,ESE,117,3.0,9.0,75,0.00,,OVC008,0.00,VWS V14.01,2013-04-14 04:45:00,
2013-04-13 23:50:00,41.1,33.8,29.91,NE,54,2.0,9.0,75,0.00,,OVC008,0.00,VWS V14.01,2013-04-14 04:50:00,
2013-04-13 23:55:00,41.1,33.5,29.91,ESE,123,3.0,9.0,74,0.00,,OVC008,0.00,VWS V14.01,2013-04-14 04:55:00,